Time,TemperatureF,DewpointF,PressureIn,WindDirection,WindDirectionDegrees,WindSpeedMPH,WindSpeedGustMPH,Humidity,HourlyPrecipIn,Conditions,Clouds,dailyrainin,SoftwareType,DateUTC
2013-02-24 00:01:00,28.0,24.0,29.66,North,351,3.0,4.0,85,0.00,,,0.02,,2013-02-24 07:01:00,
2013-02-24 00:12:00,28.0,24.0,29.66,North,351,3.0,4.0,85,0.00,,,0.02,,2013-02-24 07:12:00,
2013-02-24 00:21:00,28.0,24.0,29.66,North,5,3.0,8.0,86,0.00,,,0.02,,2013-02-24 07:21:00,
2013-02-24 00:31:00,27.0,24.0,29.65,North,5,2.0,5.0,87,0.00,,,0.02,,2013-02-24 07:31:00,
2013-02-24 00:42:00,27.0,24.0,29.65,North,5,2.0,5.0,87,0.00,,,0.02,,2013-02-24 07:42:00,
2013-02-24 00:52:00,27.0,24.0,29.67,North,7,2.0,5.0,88,0.00,,,0.02,,2013-02-24 07:52:00,
2013-02-24 01:01:00,27.0,24.0,29.67,North,7,2.0,5.0,88,0.00,,,0.02,,2013-02-24 08:01:00,
2013-02-24 01:11:00,27.0,24.0,29.67,North,7,2.0,5.0,88,0.00,,,0.02,,2013-02-24 08:11:00,
2013-02-24 01:22:00,27.0,24.0,29.67,North,7,0.0,3.0,88,0.00,,,0.02,,2013-02-24 08:22:00,
2013-02-24 01:31:00,26.0,23.0,29.68,North,7,0.0,1.0,89,0.00,,,0.02,,2013-02-24 08:31:00,
2013-02-24 01:42:00,26.0,23.0,29.68,North,7,0.0,1.0,89,0.00,,,0.02,,2013-02-24 08:42:00,
2013-02-24 01:54:00,26.0,23.0,29.67,North,7,0.0,1.0,89,0.00,,,0.02,,2013-02-24 08:54:00,
2013-02-24 02:01:00,26.0,23.0,29.67,North,7,0.0,0.0,89,0.00,,,0.02,,2013-02-24 09:01:00,
2013-02-24 02:11:00,26.0,23.0,29.67,North,7,0.0,0.0,89,0.00,,,0.02,,2013-02-24 09:11:00,
2013-02-24 02:21:00,26.0,23.0,29.67,North,7,0.0,2.0,90,0.00,,,0.02,,2013-02-24 09:21:00,
2013-02-24 02:31:00,26.0,23.0,29.66,North,7,2.0,4.0,90,0.00,,,0.02,,2013-02-24 09:31:00,
2013-02-24 02:42:00,26.0,23.0,29.66,North,7,2.0,4.0,90,0.00,,,0.02,,2013-02-24 09:42:00,
2013-02-24 02:52:00,26.0,23.0,29.65,North,7,1.0,4.0,90,0.00,,,0.02,,2013-02-24 09:52:00,
2013-02-24 03:01:00,26.0,23.0,29.65,North,7,0.0,4.0,90,0.00,,,0.02,,2013-02-24 10:01:00,
2013-02-24 03:11:00,26.0,23.0,29.65,North,7,0.0,4.0,90,0.00,,,0.02,,2013-02-24 10:11:00,
2013-02-24 03:21:00,26.0,23.0,29.65,North,7,0.0,2.0,90,0.00,,,0.02,,2013-02-24 10:21:00,
2013-02-24 03:31:00,26.0,23.0,29.65,North,7,0.0,3.0,90,0.00,,,0.02,,2013-02-24 10:31:00,
2013-02-24 03:41:00,26.0,23.0,29.65,North,7,0.0,3.0,90,0.00,,,0.02,,2013-02-24 10:41:00,
2013-02-24 03:52:00,26.0,23.0,29.65,North,7,0.0,0.0,90,0.00,,,0.02,,2013-02-24 10:52:00,
2013-02-24 04:01:00,26.0,23.0,29.65,North,7,0.0,1.0,90,0.00,,,0.02,,2013-02-24 11:01:00,
2013-02-24 04:11:00,26.0,23.0,29.65,North,7,0.0,1.0,90,0.00,,,0.02,,2013-02-24 11:11:00,
2013-02-24 04:21:00,26.0,23.0,29.66,North,7,0.0,0.0,90,0.00,,,0.02,,2013-02-24 11:21:00,
2013-02-24 04:32:00,26.0,23.0,29.67,North,7,1.0,2.0,90,0.00,,,0.02,,2013-02-24 11:32:00,
2013-02-24 04:41:00,26.0,23.0,29.67,North,7,1.0,2.0,90,0.00,,,0.02,,2013-02-24 11:41:00,
2013-02-24 04:53:00,27.0,24.0,29.66,North,7,2.0,3.0,90,0.00,,,0.02,,2013-02-24 11:53:00,
2013-02-24 05:01:00,27.0,24.0,29.67,North,7,0.0,2.0,90,0.00,,,0.02,,2013-02-24 12:01:00,
2013-02-24 05:11:00,27.0,24.0,29.67,North,7,0.0,2.0,90,0.00,,,0.02,,2013-02-24 12:11:00,
2013-02-24 05:22:00,27.0,24.0,29.68,North,7,0.0,0.0,89,0.00,,,0.02,,2013-02-24 12:22:00,
2013-02-24 05:32:00,27.0,24.0,29.69,North,7,0.0,0.0,90,0.00,,,0.02,,2013-02-24 12:32:00,
2013-02-24 05:46:00,27.0,24.0,29.69,North,7,0.0,0.0,90,0.00,,,0.02,,2013-02-24 12:46:00,
2013-02-24 05:56:00,27.0,24.0,29.69,North,7,0.0,0.0,90,0.00,,,0.02,,2013-02-24 12:56:00,
2013-02-24 06:16:00,27.0,24.0,29.69,North,7,0.0,0.0,89,0.00,,,0.02,,2013-02-24 13:16:00,
2013-02-24 06:26:00,27.0,24.0,29.69,North,7,0.0,0.0,90,0.00,,,0.02,,2013-02-24 13:26:00,
2013-02-24 06:33:00,27.0,24.0,29.72,North,7,1.0,4.0,90,0.00,,,0.02,,2013-02-24 13:33:00,
2013-02-24 06:44:00,27.0,24.0,29.72,North,7,1.0,4.0,90,0.00,,,0.02,,2013-02-24 13:44:00,
2013-02-24 06:55:00,26.0,23.0,29.72,North,360,1.0,6.0,90,0.00,,,0.02,,2013-02-24 13:55:00,
2013-02-24 07:03:00,26.0,24.0,29.73,North,6,1.0,7.0,91,0.00,,,0.02,,2013-02-24 14:03:00,
2013-02-24 07:13:00,26.0,24.0,29.73,North,6,1.0,7.0,91,0.00,,,0.02,,2013-02-24 14:13:00,
2013-02-24 07:33:00,26.0,24.0,29.73,North,7,6.0,9.0,91,0.00,,,0.02,,2013-02-24 14:33:00,
2013-02-24 07:44:00,26.0,24.0,29.73,North,7,6.0,9.0,91,0.00,,,0.02,,2013-02-24 14:44:00,
2013-02-24 07:54:00,26.0,23.0,29.74,North,354,2.0,9.0,90,0.00,,,0.02,,2013-02-24 14:54:00,
2013-02-24 08:02:00,25.0,22.0,29.75,North,360,4.0,10.0,90,0.00,,,0.02,,2013-02-24 15:02:00,
2013-02-24 08:13:00,25.0,22.0,29.75,North,360,4.0,10.0,90,0.00,,,0.02,,2013-02-24 15:13:00,
2013-02-24 08:23:00,25.0,22.0,29.76,NNW,339,13.0,13.0,89,0.00,,,0.02,,2013-02-24 15:23:00,
2013-02-24 08:32:00,25.0,22.0,29.77,NNE,24,8.0,22.0,88,0.00,,,0.02,,2013-02-24 15:32:00,
2013-02-24 08:42:00,25.0,22.0,29.77,NNE,24,8.0,22.0,88,0.00,,,0.02,,2013-02-24 15:42:00,
2013-02-24 08:53:00,24.0,21.0,29.78,North,5,6.0,23.0,89,0.00,,,0.02,,2013-02-24 15:53:00,
2013-02-24 09:01:00,24.0,22.0,29.79,North,11,3.0,16.0,90,0.00,,,0.02,,2013-02-24 16:01:00,
2013-02-24 09:11:00,24.0,22.0,29.79,North,11,3.0,16.0,90,0.00,,,0.02,,2013-02-24 16:11:00,
2013-02-24 09:21:00,24.0,21.0,29.80,North,358,2.0,17.0,89,0.00,,,0.02,,2013-02-24 16:21:00,
2013-02-24 09:32:00,24.0,21.0,29.81,North,357,5.0,21.0,89,0.00,,,0.02,,2013-02-24 16:32:00,
2013-02-24 09:42:00,24.0,21.0,29.81,North,357,5.0,21.0,89,0.00,,,0.02,,2013-02-24 16:42:00,
2013-02-24 09:52:00,24.0,21.0,29.82,NNW,339,10.0,17.0,89,0.00,,,0.02,,2013-02-24 16:52:00,
2013-02-24 10:01:00,24.0,21.0,29.83,North,360,9.0,13.0,89,0.00,,,0.02,,2013-02-24 17:01:00,
2013-02-24 10:11:00,24.0,21.0,29.83,North,360,9.0,13.0,89,0.00,,,0.02,,2013-02-24 17:11:00,
2013-02-24 10:21:00,24.0,21.0,29.84,NNW,341,10.0,21.0,89,0.00,,,0.02,,2013-02-24 17:21:00,
2013-02-24 10:32:00,24.0,21.0,29.84,NNW,344,14.0,29.0,89,0.00,,,0.02,,2013-02-24 17:32:00,
2013-02-24 10:42:00,24.0,21.0,29.84,NNW,344,14.0,29.0,89,0.00,,,0.02,,2013-02-24 17:42:00,
2013-02-24 10:53:00,24.0,21.0,29.85,NNW,340,4.0,19.0,89,0.00,,,0.02,,2013-02-24 17:53:00,
2013-02-24 11:01:00,23.0,20.0,29.85,NW,325,12.0,20.0,89,0.00,,,0.02,,2013-02-24 18:01:00,
2013-02-24 11:11:00,23.0,20.0,29.85,NW,325,12.0,20.0,89,0.00,,,0.02,,2013-02-24 18:11:00,
2013-02-24 11:22:00,24.0,21.0,29.85,NNW,346,11.0,20.0,89,0.00,,,0.02,,2013-02-24 18:22:00,
2013-02-24 11:32:00,24.0,21.0,29.85,NNE,29,14.0,16.0,89,0.00,,,0.02,,2013-02-24 18:32:00,
2013-02-24 11:42:00,24.0,21.0,29.85,NNE,29,14.0,16.0,89,0.00,,,0.02,,2013-02-24 18:42:00,
2013-02-24 11:52:00,24.0,21.0,29.87,North,360,5.0,15.0,89,0.00,,,0.02,,2013-02-24 18:52:00,
2013-02-24 12:01:00,24.0,21.0,29.87,North,9,5.0,19.0,89,0.00,,,0.01,,2013-02-24 19:01:00,
2013-02-24 12:11:00,24.0,21.0,29.87,North,9,5.0,19.0,89,0.00,,,0.01,,2013-02-24 19:11:00,
2013-02-24 12:22:00,24.0,21.0,29.87,North,350,6.0,21.0,89,0.00,,,0.01,,2013-02-24 19:22:00,
2013-02-24 12:32:00,24.0,21.0,29.88,North,357,9.0,17.0,89,0.00,,,0.01,,2013-02-24 19:32:00,
2013-02-24 12:41:00,24.0,21.0,29.88,North,357,9.0,17.0,89,0.00,,,0.01,,2013-02-24 19:41:00,
2013-02-24 12:52:00,24.0,21.0,29.88,NNW,342,12.0,15.0,89,0.00,,,0.01,,2013-02-24 19:52:00,
2013-02-24 13:02:00,24.0,21.0,29.88,North,360,11.0,14.0,89,0.00,,,0.01,,2013-02-24 20:02:00,
2013-02-24 13:11:00,24.0,21.0,29.88,North,360,11.0,14.0,89,0.00,,,0.01,,2013-02-24 20:11:00,
2013-02-24 13:21:00,24.0,21.0,29.88,North,350,6.0,18.0,89,0.00,,,0.01,,2013-02-24 20:21:00,
2013-02-24 13:32:00,24.0,21.0,29.88,NNW,339,10.0,16.0,89,0.00,,,0.00,,2013-02-24 20:32:00,
2013-02-24 13:42:00,24.0,21.0,29.88,NNW,339,10.0,16.0,89,0.00,,,0.00,,2013-02-24 20:42:00,
2013-02-24 13:52:00,24.0,22.0,29.88,NNE,14,5.0,13.0,90,0.00,,,0.00,,2013-02-24 20:52:00,
2013-02-24 14:01:00,24.0,22.0,29.88,North,1,4.0,10.0,90,0.00,,,0.00,,2013-02-24 21:01:00,
2013-02-24 14:11:00,24.0,22.0,29.88,North,1,4.0,10.0,90,0.00,,,0.00,,2013-02-24 21:11:00,
2013-02-24 14:21:00,24.0,21.0,29.89,NNE,21,3.0,15.0,89,0.00,,,0.00,,2013-02-24 21:21:00,
2013-02-24 14:32:00,24.0,21.0,29.89,NNE,15,2.0,12.0,89,0.00,,,0.00,,2013-02-24 21:32:00,
2013-02-24 14:42:00,24.0,21.0,29.89,NNE,15,2.0,12.0,89,0.00,,,0.00,,2013-02-24 21:42:00,
2013-02-24 14:52:00,25.0,22.0,29.90,NE,42,2.0,12.0,89,0.00,,,0.00,,2013-02-24 21:52:00,
2013-02-24 15:01:00,25.0,22.0,29.90,North,352,3.0,16.0,89,0.00,,,0.00,,2013-02-24 22:01:00,
2013-02-24 15:11:00,25.0,22.0,29.90,North,352,3.0,16.0,89,0.00,,,0.00,,2013-02-24 22:11:00,
2013-02-24 15:21:00,25.0,22.0,29.91,NNE,19,4.0,13.0,88,0.00,,,0.00,,2013-02-24 22:21:00,
2013-02-24 15:31:00,25.0,22.0,29.91,North,351,7.0,12.0,88,0.00,,,0.00,,2013-02-24 22:31:00,
2013-02-24 15:41:00,25.0,22.0,29.91,North,351,7.0,12.0,88,0.00,,,0.00,,2013-02-24 22:41:00,
2013-02-24 15:52:00,25.0,22.0,29.92,North,1,5.0,10.0,89,0.00,,,0.00,,2013-02-24 22:52:00,
2013-02-24 16:02:00,25.0,22.0,29.92,NNW,337,12.0,12.0,89,0.00,,,0.00,,2013-02-24 23:02:00,
2013-02-24 16:11:00,25.0,22.0,29.92,NNW,337,12.0,12.0,89,0.00,,,0.00,,2013-02-24 23:11:00,
2013-02-24 16:21:00,25.0,22.0,29.93,North,5,5.0,12.0,89,0.00,,,0.00,,2013-02-24 23:21:00,
2013-02-24 16:31:00,25.0,22.0,29.93,NNE,30,1.0,12.0,88,0.00,,,0.00,,2013-02-24 23:31:00,
2013-02-24 16:42:00,25.0,22.0,29.93,NNE,30,1.0,12.0,88,0.00,,,0.00,,2013-02-24 23:42:00,
2013-02-24 16:52:00,24.0,21.0,29.93,NNE,15,2.0,13.0,88,0.00,,,0.00,,2013-02-24 23:52:00,
2013-02-24 17:01:00,24.0,21.0,29.93,NNE,33,4.0,6.0,87,0.00,,,0.00,,2013-02-25 00:01:00,
2013-02-24 17:11:00,24.0,21.0,29.93,NNE,33,4.0,6.0,87,0.00,,,0.00,,2013-02-25 00:11:00,
2013-02-24 17:21:00,24.0,21.0,29.94,NNE,24,4.0,9.0,87,0.00,,,0.00,,2013-02-25 00:21:00,
2013-02-24 17:31:00,24.0,21.0,29.94,NNE,31,2.0,7.0,87,0.00,,,0.00,,2013-02-25 00:31:00,
2013-02-24 17:42:00,24.0,21.0,29.94,NNE,31,2.0,7.0,87,0.00,,,0.00,,2013-02-25 00:42:00,
2013-02-24 17:52:00,24.0,21.0,29.97,NNE,27,2.0,9.0,87,0.00,,,0.00,,2013-02-25 00:52:00,
2013-02-24 18:01:00,24.0,21.0,29.98,NNE,23,1.0,9.0,87,0.00,,,0.00,,2013-02-25 01:01:00,
2013-02-24 18:11:00,24.0,21.0,29.98,NNE,23,1.0,9.0,87,0.00,,,0.00,,2013-02-25 01:11:00,
2013-02-24 18:21:00,24.0,21.0,29.98,North,352,0.0,5.0,88,0.00,,,0.00,,2013-02-25 01:21:00,
2013-02-24 18:31:00,24.0,21.0,29.99,North,1,4.0,4.0,88,0.00,,,0.00,,2013-02-25 01:31:00,
2013-02-24 18:42:00,24.0,21.0,29.99,North,1,4.0,4.0,88,0.00,,,0.00,,2013-02-25 01:42:00,
2013-02-24 18:52:00,23.0,20.0,29.98,NE,35,3.0,6.0,88,0.00,,,0.00,,2013-02-25 01:52:00,
2013-02-24 19:01:00,23.0,20.0,29.99,NE,36,0.0,5.0,87,0.00,,,0.00,,2013-02-25 02:01:00,
2013-02-24 19:11:00,23.0,20.0,29.99,NE,36,0.0,5.0,87,0.00,,,0.00,,2013-02-25 02:11:00,
2013-02-24 19:21:00,22.0,19.0,30.00,NE,37,0.0,3.0,87,0.00,,,0.00,,2013-02-25 02:21:00,
2013-02-24 19:31:00,21.0,18.0,29.99,NE,38,2.0,4.0,87,0.00,,,0.00,,2013-02-25 02:31:00,
2013-02-24 19:41:00,21.0,18.0,29.99,NE,38,2.0,4.0,87,0.00,,,0.00,,2013-02-25 02:41:00,
2013-02-24 19:52:00,21.0,18.0,29.99,NE,38,0.0,2.0,87,0.00,,,0.00,,2013-02-25 02:52:00,
2013-02-24 20:01:00,20.0,16.0,30.01,NE,37,2.0,3.0,86,0.00,,,0.00,,2013-02-25 03:01:00,
2013-02-24 20:11:00,20.0,16.0,30.01,NE,37,2.0,3.0,86,0.00,,,0.00,,2013-02-25 03:11:00,
2013-02-24 20:21:00,19.0,16.0,30.01,NE,38,2.0,3.0,86,0.00,,,0.00,,2013-02-25 03:21:00,
2013-02-24 20:31:00,19.0,16.0,30.00,NE,38,1.0,2.0,86,0.00,,,0.00,,2013-02-25 03:31:00,
2013-02-24 20:41:00,19.0,16.0,30.00,NE,38,1.0,2.0,86,0.00,,,0.00,,2013-02-25 03:41:00,
2013-02-24 20:52:00,19.0,16.0,30.00,NE,38,1.0,2.0,87,0.00,,,0.00,,2013-02-25 03:52:00,
2013-02-24 21:01:00,18.0,15.0,30.01,NE,38,0.0,3.0,87,0.00,,,0.00,,2013-02-25 04:01:00,
2013-02-24 21:11:00,18.0,15.0,30.01,NE,38,0.0,3.0,87,0.00,,,0.00,,2013-02-25 04:11:00,
2013-02-24 21:21:00,19.0,16.0,30.01,NE,38,0.0,1.0,87,0.00,,,0.00,,2013-02-25 04:21:00,
2013-02-24 21:31:00,19.0,16.0,30.01,NE,38,0.0,3.0,86,0.00,,,0.00,,2013-02-25 04:31:00,
2013-02-24 21:41:00,19.0,16.0,30.01,NE,38,0.0,3.0,86,0.00,,,0.00,,2013-02-25 04:41:00,
2013-02-24 21:52:00,18.0,15.0,30.01,NE,38,1.0,2.0,86,0.00,,,0.00,,2013-02-25 04:52:00,
2013-02-24 22:01:00,17.0,13.0,30.03,NE,38,1.0,2.0,85,0.00,,,0.00,,2013-02-25 05:01:00,
2013-02-24 22:11:00,17.0,13.0,30.03,NE,38,1.0,2.0,85,0.00,,,0.00,,2013-02-25 05:11:00,
2013-02-24 22:22:00,17.0,13.0,30.03,NE,38,0.0,2.0,85,0.00,,,0.00,,2013-02-25 05:22:00,
2013-02-24 22:31:00,18.0,15.0,30.01,NE,38,2.0,2.0,86,0.00,,,0.00,,2013-02-25 05:31:00,
2013-02-24 22:42:00,18.0,15.0,30.01,NE,38,2.0,2.0,86,0.00,,,0.00,,2013-02-25 05:42:00,
2013-02-24 22:52:00,18.0,14.0,30.01,NE,38,1.0,2.0,85,0.00,,,0.00,,2013-02-25 05:52:00,
2013-02-24 23:02:00,18.0,15.0,30.01,NE,38,0.0,1.0,86,0.00,,,0.00,,2013-02-25 06:02:00,
2013-02-24 23:11:00,18.0,15.0,30.01,NE,38,0.0,1.0,86,0.00,,,0.00,,2013-02-25 06:11:00,
2013-02-24 23:21:00,19.0,16.0,30.00,NE,38,1.0,1.0,86,0.00,,,0.00,,2013-02-25 06:21:00,
2013-02-24 23:31:00,20.0,16.0,30.01,NE,38,3.0,3.0,86,0.00,,,0.00,,2013-02-25 06:31:00,
2013-02-24 23:42:00,20.0,16.0,30.01,NE,38,3.0,3.0,86,0.00,,,0.00,,2013-02-25 06:42:00,
2013-02-24 23:52:00,20.0,16.0,29.99,NE,39,0.0,3.0,85,0.00,,,0.00,,2013-02-25 06:52:00,